User: anonymous   Login
Location: Unspecified
(0.0000°N, 0.0000°E)
Time: 20:41:30
(UTC+02:00)
Language:

Ariane H10 - Orbit

View from above orbital plane
View from above orbital plane
View from above satellite
View from above satellite

Ground track
Ground track

The orbit data is extracted from the following two-line orbital elements,

1 19622U 88098B   16238.92781500  .00002934  00000-0  79311-3 0  9997
2 19622   3.8742 358.9693 6410716 222.9935  63.7964  3.43200619294149
Epoch (UTC): 25 August 2016 22:16:03
Eccentricity: 0.6410716
inclination: 3.8742°
perigee height: 285 km
apogee height: 24089 km
right ascension of ascending node: 358.9693°
argument of perigee: 222.9935°
revolutions per day: 3.43200619
mean anomaly at epoch: 63.7964°
orbit number at epoch: 29414

The dashed part of the orbit path shows where the satellite is in the earth's shadow,  

DLR